| time (UTC) | temp C | wind direction | speed KPH | gust KPH | rain 1hr cm | rain 24hr cm | rain mn cm | humidity % | barometer mb |
| 20260904101813 | 20 | 155 | 0.0 | 3.2 | 0.00 | 1.70 | 0.00 | 93 | 1014.6 |
| 20260904100829 | 20 | 155 | 0.0 | 4.8 | 0.00 | 1.70 | 0.00 | 93 | 1014.8 |
| 20260904095818 | 20 | 112 | 0.0 | 3.2 | 0.00 | 1.75 | 0.00 | 93 | 1014.9 |
| 20260904094834 | 20 | 112 | 0.0 | 0.0 | 0.00 | 1.75 | 0.00 | 93 | 1014.6 |
| 20260904093820 | 20 | 114 | 0.0 | 0.0 | 0.00 | 1.75 | 0.00 | 93 | 1014.6 |
| 20260904092816 | 20 | 114 | 0.0 | 0.0 | 0.00 | 1.75 | 0.00 | 93 | 1014.4 |
| 20260904091832 | 20 | 114 | 0.0 | 0.0 | 0.00 | 1.75 | 0.00 | 93 | 1014.6 |
| 20260904090827 | 20 | 114 | 0.0 | 0.0 | 0.00 | 1.75 | 0.00 | 93 | 1014.5 |
| 20260904085816 | 20 | 114 | 0.0 | 0.0 | 0.00 | 1.85 | 0.00 | 92 | 1014.7 |
| 20260904084832 | 20 | 114 | 0.0 | 0.0 | 0.00 | 1.85 | 0.00 | 92 | 1014.7 |
| 20260904083828 | 20 | 114 | 0.0 | 0.0 | 0.00 | 1.85 | 0.00 | 92 | 1014.8 |
| 20260904082844 | 20 | 114 | 0.0 | 1.6 | 0.00 | 1.85 | 0.00 | 92 | 1014.9 |
| 20260904081838 | 21 | 114 | 1.6 | 1.6 | 0.00 | 1.85 | 0.00 | 92 | 1014.8 |
| 20260904080836 | 21 | 114 | 0.0 | 0.0 | 0.00 | 1.85 | 0.00 | 92 | 1014.7 |
| 20260904075815 | 20 | 113 | 0.0 | 1.6 | 0.00 | 1.85 | 0.00 | 92 | 1014.6 |
| 20260904074841 | 21 | 113 | 0.0 | 3.2 | 0.00 | 1.85 | 0.00 | 92 | 1014.6 |
| 20260904073827 | 21 | 114 | 1.6 | 3.2 | 0.00 | 1.85 | 0.00 | 91 | 1014.5 |
| 20260904072844 | 21 | 114 | 0.0 | 1.6 | 0.00 | 1.85 | 0.00 | 91 | 1014.4 |
| 20260904071819 | 21 | 114 | 0.0 | 0.0 | 0.00 | 1.85 | 0.00 | 91 | 1014.2 |
| 20260904070836 | 21 | 114 | 0.0 | 0.0 | 0.00 | 1.85 | 0.00 | 91 | 1014.0 |
| 20260904065822 | 21 | 114 | 0.0 | 0.0 | 0.00 | 1.85 | 0.00 | 91 | 1014.1 |
| 20260904064849 | 21 | 109 | 0.0 | 0.0 | 0.00 | 1.85 | 0.00 | 90 | 1013.9 |
| 20260904063813 | 21 | 109 | 0.0 | 3.2 | 0.00 | 1.85 | 0.00 | 90 | 1013.8 |
| 20260904062829 | 21 | 94 | 0.0 | 0.0 | 0.00 | 1.85 | 0.00 | 89 | 1013.7 |
| 20260904061825 | 21 | 94 | 0.0 | 1.6 | 0.00 | 1.85 | 0.00 | 88 | 1013.5 |
| 20260904060837 | 22 | 94 | 0.0 | 1.6 | 0.00 | 1.85 | 0.00 | 86 | 1013.7 |
| 20260904055825 | 22 | 94 | 1.6 | 3.2 | 0.00 | 1.85 | 0.00 | 85 | 1013.5 |
| 20260904054821 | 22 | 74 | 1.6 | 3.2 | 0.00 | 1.85 | 0.00 | 83 | 1013.6 |
| 20260904053816 | 22 | 68 | 0.0 | 4.8 | 0.00 | 1.85 | 0.00 | 85 | 1013.8 |
| 20260904052832 | 22 | 69 | 1.6 | 8.0 | 0.00 | 1.85 | 0.00 | 85 | 1013.8 |
| 20260904051830 | 22 | 39 | 1.6 | 6.4 | 0.00 | 1.85 | 0.00 | 86 | 1013.7 |
| 20260904050816 | 22 | 91 | 0.0 | 4.8 | 0.00 | 1.85 | 0.00 | 85 | 1013.7 |
| 20260904045825 | 22 | 91 | 1.6 | 8.0 | 0.00 | 1.85 | 0.00 | 86 | 1013.8 |
| 20260904044821 | 22 | 155 | 0.0 | 3.2 | 0.00 | 1.85 | 0.00 | 86 | 1013.9 |
| 20260904043817 | 23 | 155 | 0.0 | 8.0 | 0.00 | 1.85 | 0.00 | 86 | 1014.2 |
| 20260904042830 | 23 | 91 | 3.2 | 8.0 | 0.00 | 1.85 | 0.00 | 86 | 1014.2 |
| 20260904041825 | 23 | 192 | 1.6 | 8.0 | 0.03 | 1.85 | 0.00 | 85 | 1014.4 |
| 20260904040841 | 23 | 26 | 6.4 | 17.7 | 0.03 | 1.85 | 0.00 | 87 | 1014.8 |
| 20260904035830 | 23 | 65 | 9.7 | 20.9 | 0.03 | 1.85 | 1.85 | 90 | 1015.1 |
| 20260904034818 | 23 | 343 | 0.0 | 14.5 | 0.03 | 1.85 | 1.85 | 91 | 1015.2 |
| 20260904033814 | 23 | 38 | 0.0 | 11.3 | 0.28 | 1.85 | 1.85 | 92 | 1015.5 |
| 20260904032832 | 23 | 43 | 0.0 | 3.2 | 0.28 | 1.85 | 1.85 | 92 | 1015.5 |
| 20260904031826 | 23 | 140 | 0.0 | 0.0 | 0.25 | 1.83 | 1.83 | 92 | 1015.8 |
| 20260904030822 | 23 | 140 | 0.0 | 0.0 | 0.25 | 1.83 | 1.83 | 92 | 1015.8 |
| 20260904025830 | 23 | 140 | 0.0 | 3.2 | 0.25 | 1.83 | 1.83 | 91 | 1015.7 |
| 20260904024826 | 23 | 137 | 3.2 | 8.0 | 0.25 | 1.83 | 1.83 | 90 | 1015.4 |
| 20260904023842 | 23 | 175 | 0.0 | 0.0 | 0.00 | 1.57 | 1.57 | 90 | 1015.5 |
| 20260904022857 | 24 | 175 | 0.0 | 0.0 | 0.00 | 1.57 | 1.57 | 90 | 1015.5 |
| 20260904021823 | 24 | 175 | 0.0 | 0.0 | 0.00 | 1.57 | 1.57 | 89 | 1015.4 |
| 20260904020818 | 25 | 175 | 0.0 | 0.0 | 0.00 | 1.57 | 1.57 | 88 | 1015.4 |
| 20260904015827 | 25 | 175 | 0.0 | 0.0 | 0.00 | 1.57 | 1.57 | 87 | 1015.3 |
| 20260904014823 | 25 | 175 | 0.0 | 0.0 | 0.00 | 1.57 | 1.57 | 87 | 1015.1 |
| 20260904013818 | 25 | 175 | 0.0 | 0.0 | 0.00 | 1.57 | 1.57 | 87 | 1014.9 |
| 20260904012814 | 25 | 175 | 0.0 | 0.0 | 0.00 | 1.57 | 1.57 | 87 | 1014.8 |
| 20260904011850 | 25 | 175 | 0.0 | 0.0 | 0.00 | 1.57 | 1.57 | 87 | 1014.9 |
| 20260904010825 | 25 | 175 | 0.0 | 0.0 | 0.00 | 1.57 | 1.57 | 87 | 1015.1 |
| 20260904005815 | 25 | 175 | 0.0 | 0.0 | 0.00 | 1.57 | 1.57 | 87 | 1015.3 |
| 20260904004826 | 25 | 175 | 0.0 | 0.0 | 0.00 | 1.57 | 1.57 | 87 | 1015.4 |
| 20260904003813 | 25 | 175 | 0.0 | 0.0 | 0.00 | 1.57 | 1.57 | 87 | 1015.4 |
| 20260904002825 | 25 | 175 | 0.0 | 0.0 | 0.00 | 1.57 | 1.57 | 87 | 1015.5 |
| 20260904001820 | 25 | 175 | 0.0 | 0.0 | 0.00 | 1.57 | 1.57 | 86 | 1015.6 |
| 20260904000817 | 25 | 175 | 0.0 | 0.0 | 0.00 | 1.57 | 1.57 | 85 | 1015.7 |
| 20260903235825 | 26 | 175 | 0.0 | 0.0 | 0.00 | 1.57 | 1.57 | 84 | 1015.5 |
| 20260903234822 | 26 | 175 | 0.0 | 0.0 | 0.00 | 1.57 | 1.57 | 84 | 1015.4 |
| 20260903233818 | 26 | 175 | 0.0 | 0.0 | 0.00 | 1.57 | 1.57 | 83 | 1015.0 |
| 20260903232854 | 26 | 171 | 0.0 | 0.0 | 0.00 | 1.57 | 1.57 | 83 | 1014.8 |
| 20260903231829 | 26 | 171 | 0.0 | 0.0 | 0.00 | 1.57 | 1.57 | 82 | 1015.0 |
| 20260903230847 | 27 | 171 | 0.0 | 0.0 | 0.00 | 1.57 | 1.57 | 82 | 1014.9 |
| 20260903225814 | 27 | 171 | 0.0 | 0.0 | 0.00 | 1.57 | 1.57 | 81 | 1015.1 |
| 20260903224829 | 27 | 171 | 0.0 | 0.0 | 0.00 | 1.57 | 1.57 | 80 | 1015.0 |
| 20260903223816 | 27 | 171 | 0.0 | 0.0 | 0.00 | 1.57 | 1.57 | 79 | 1014.7 |
| 20260903222813 | 28 | 171 | 0.0 | 4.8 | 0.00 | 1.57 | 1.57 | 78 | 1014.7 |
| 20260903221859 | 28 | 171 | 4.8 | 11.3 | 0.00 | 1.57 | 1.57 | 76 | 1014.6 |
| 20260903220824 | 29 | 173 | 1.6 | 6.4 | 0.00 | 1.57 | 1.57 | 75 | 1014.5 |
| 20260903215842 | 29 | 169 | 3.2 | 6.4 | 0.00 | 1.57 | 1.57 | 74 | 1014.6 |
| 20260903214836 | 29 | 159 | 1.6 | 8.0 | 0.00 | 1.57 | 1.57 | 75 | 1014.6 |
| 20260903213823 | 28 | 189 | 1.6 | 8.0 | 0.00 | 1.57 | 1.57 | 75 | 1014.8 |
| 20260903212819 | 29 | 208 | 3.2 | 9.7 | 0.00 | 1.57 | 1.57 | 73 | 1014.6 |
| 20260903211814 | 29 | 182 | 1.6 | 6.4 | 0.00 | 1.57 | 1.57 | 72 | 1014.5 |
| 20260903210831 | 29 | 200 | 3.2 | 11.3 | 0.00 | 1.57 | 1.57 | 72 | 1014.6 |
| 20260903205819 | 29 | 180 | 3.2 | 12.9 | 0.00 | 1.57 | 1.57 | 73 | 1014.5 |
| 20260903204816 | 29 | 165 | 1.6 | 8.0 | 0.00 | 1.57 | 1.57 | 74 | 1014.6 |
| 20260903203832 | 29 | 177 | 3.2 | 9.7 | 0.00 | 1.57 | 1.57 | 71 | 1014.7 |
| 20260903202844 | 29 | 135 | 4.8 | 12.9 | 0.00 | 1.57 | 1.57 | 70 | 1014.8 |
| 20260903201838 | 29 | 202 | 4.8 | 9.7 | 0.00 | 1.57 | 1.57 | 71 | 1014.9 |
| 20260903200825 | 29 | 189 | 3.2 | 11.3 | 0.00 | 1.57 | 1.57 | 70 | 1015.1 |
| 20260903195815 | 29 | 242 | 4.8 | 12.9 | 0.00 | 1.57 | 1.57 | 71 | 1015.1 |
| 20260903194859 | 29 | 63 | 1.6 | 6.4 | 0.00 | 1.57 | 1.57 | 73 | 1015.3 |
| 20260903193825 | 29 | 216 | 6.4 | 14.5 | 0.00 | 1.57 | 1.57 | 69 | 1015.5 |
| 20260903192821 | 29 | 151 | 3.2 | 11.3 | 0.00 | 1.57 | 1.57 | 71 | 1015.5 |
| 20260903191818 | 28 | 153 | 4.8 | 14.5 | 0.00 | 1.57 | 1.57 | 70 | 1015.7 |
| 20260903190831 | 28 | 112 | 4.8 | 12.9 | 0.00 | 1.57 | 1.57 | 73 | 1015.8 |
| 20260903185821 | 28 | 132 | 3.2 | 9.7 | 0.00 | 1.68 | 1.57 | 73 | 1015.7 |
| 20260903184817 | 28 | 175 | 1.6 | 8.0 | 0.00 | 1.68 | 1.57 | 75 | 1015.8 |
| 20260903183832 | 28 | 156 | 1.6 | 9.7 | 0.00 | 1.68 | 1.57 | 75 | 1015.9 |
| 20260903182848 | 28 | 115 | 1.6 | 9.7 | 0.00 | 1.68 | 1.57 | 76 | 1015.9 |
| 20260903181815 | 28 | 183 | 4.8 | 9.7 | 0.00 | 1.68 | 1.57 | 78 | 1015.9 |
| 20260903180902 | 28 | 331 | 4.8 | 12.9 | 0.00 | 1.68 | 1.57 | 80 | 1016.1 |
| 20260903175831 | 27 | 195 | 4.8 | 12.9 | 0.00 | 2.06 | 1.57 | 81 | 1016.3 |
| 20260903174827 | 27 | 142 | 3.2 | 11.3 | 0.00 | 2.06 | 1.57 | 83 | 1016.3 |
| 20260903173842 | 26 | 117 | 6.4 | 12.9 | 0.00 | 2.06 | 1.57 | 84 | 1016.7 |
| 20260903172836 | 26 | 225 | 6.4 | 11.3 | 0.00 | 2.06 | 1.57 | 85 | 1016.5 |
| 20260903171851 | 25 | 146 | 3.2 | 11.3 | 0.00 | 2.06 | 1.57 | 89 | 1016.5 |
| 20260903170842 | 25 | 192 | 3.2 | 11.3 | 0.00 | 2.06 | 1.57 | 90 | 1016.5 |
| 20260903165831 | 23 | 172 | 4.8 | 9.7 | 0.00 | 3.07 | 1.57 | 92 | 1016.4 |
| 20260903164826 | 23 | 176 | 1.6 | 6.4 | 0.03 | 3.07 | 1.57 | 94 | 1016.5 |
| 20260903163821 | 23 | 177 | 3.2 | 9.7 | 0.03 | 3.07 | 1.57 | 94 | 1016.7 |
| 20260903162837 | 23 | 109 | 3.2 | 8.0 | 0.03 | 3.07 | 1.57 | 95 | 1016.9 |
| 20260903161832 | 22 | 180 | 3.2 | 4.8 | 0.03 | 3.07 | 1.57 | 95 | 1016.9 |
| 20260903160828 | 22 | 173 | 0.0 | 4.8 | 0.03 | 3.07 | 1.57 | 95 | 1017.2 |
| 20260903155838 | 22 | 193 | 3.2 | 8.0 | 0.03 | 3.07 | 1.57 | 95 | 1017.9 |
| 20260903154814 | 22 | 215 | 1.6 | 9.7 | 0.00 | 3.05 | 1.55 | 96 | 1018.6 |
| 20260903153831 | 22 | 163 | 3.2 | 11.3 | 0.00 | 3.05 | 1.55 | 96 | 1018.5 |
| 20260903152821 | 22 | 88 | 3.2 | 6.4 | 0.00 | 3.05 | 1.55 | 96 | 1018.7 |
| 20260903151817 | 22 | 161 | 1.6 | 6.4 | 0.00 | 3.05 | 1.55 | 96 | 1019.1 |
| 20260903150814 | 22 | 59 | 3.2 | 11.3 | 0.00 | 3.05 | 1.55 | 96 | 1019.1 |
| 20260903145823 | 22 | 55 | 8.0 | 16.1 | 0.00 | 3.05 | 1.55 | 96 | 1019.3 |
| 20260903144838 | 22 | 49 | 8.0 | 16.1 | 0.00 | 3.05 | 1.55 | 96 | 1019.2 |
| 20260903143813 | 22 | 169 | 3.2 | 6.4 | 0.00 | 3.05 | 1.55 | 96 | 1018.3 |
| 20260903142829 | 22 | 194 | 3.2 | 8.0 | 0.00 | 3.05 | 1.55 | 96 | 1018.1 |
| 20260903141826 | 22 | 172 | 3.2 | 8.0 | 0.00 | 3.05 | 1.55 | 96 | 1017.9 |
| 20260903140813 | 22 | 194 | 0.0 | 4.8 | 0.00 | 3.05 | 1.55 | 96 | 1017.4 |
| 20260903135832 | 22 | 194 | 1.6 | 6.4 | 0.00 | 3.05 | 1.55 | 96 | 1017.3 |
| 20260903134821 | 22 | 216 | 1.6 | 11.3 | 0.00 | 3.05 | 1.55 | 96 | 1017.4 |
| 20260903133818 | 22 | 185 | 1.6 | 4.8 | 0.00 | 3.05 | 1.55 | 96 | 1017.1 |
| 20260903132902 | 21 | 185 | 1.6 | 4.8 | 0.00 | 3.05 | 1.55 | 96 | 1017.3 |
| 20260903131829 | 21 | 185 | 1.6 | 4.8 | 0.00 | 3.05 | 1.55 | 96 | 1017.7 |
| 20260903130825 | 21 | 165 | 3.2 | 8.0 | 0.00 | 3.05 | 1.55 | 96 | 1017.6 |
| 20260903125818 | 21 | 209 | 1.6 | 6.4 | 0.00 | 3.05 | 1.55 | 96 | 1018.0 |
| 20260903124837 | 21 | 206 | 1.6 | 6.4 | 0.00 | 3.05 | 1.55 | 96 | 1018.3 |
| 20260903123828 | 21 | 192 | 3.2 | 6.4 | 0.00 | 3.05 | 1.55 | 96 | 1018.3 |
| 20260903122825 | 21 | 232 | 1.6 | 4.8 | 0.00 | 3.05 | 1.55 | 96 | 1018.4 |
| 20260903121841 | 21 | 169 | 3.2 | 8.0 | 0.00 | 3.05 | 1.55 | 96 | 1017.4 |
| 20260903120841 | 21 | 169 | 6.4 | 9.7 | 0.00 | 3.05 | 1.55 | 96 | 1016.9 |
| 20260903115828 | 20 | 167 | 6.4 | 8.0 | 0.00 | 3.05 | 1.55 | 96 | 1017.8 |
| 20260903114828 | 20 | 154 | 0.0 | 0.0 | 0.00 | 3.05 | 1.55 | 96 | 1018.7 |
| 20260903113816 | 20 | 107 | 0.0 | 0.0 | 0.05 | 3.05 | 1.55 | 96 | 1018.4 |
| 20260903112831 | 20 | 5 | 0.0 | 0.0 | 0.99 | 3.05 | 1.55 | 96 | 1019.4 |
| 20260903111828 | 20 | 5 | 0.0 | 0.0 | 1.40 | 3.05 | 1.55 | 96 | 1019.3 |
| 20260903110824 | 20 | 5 | 0.0 | 3.2 | 1.40 | 3.05 | 1.55 | 96 | 1019.4 |
| 20260903105833 | 20 | 5 | 1.6 | 3.2 | 1.40 | 3.05 | 1.55 | 95 | 1019.2 |
| 20260903104848 | 20 | 5 | 1.6 | 9.7 | 1.40 | 3.05 | 1.55 | 96 | 1019.0 |
| 20260903103825 | 20 | 74 | 4.8 | 29.0 | 1.37 | 3.00 | 1.50 | 96 | 1019.5 |
| 20260903102820 | 21 | 33 | 22.5 | 35.4 | 0.30 | 1.93 | 0.48 | 96 | 1020.1 |